Location: Rounton
(54.4000°N, 1.3500°W)
Time: 07:27:03
(UTC+00:00)

Transit 4A - All Passes

Search period start: 25 February 2024 00:00
Search period end: 06 March 2024 00:00
Orbit: 869 x 974 km, 66.8° (Epoch: 24 February)

Date Brightness Start Highest point End Pass type
(mag) Time Alt. Az. Time Alt. Az. Time Alt. Az.
25 Feb - 00:25:17 10° SSE 00:29:38 20° ESE 00:33:55 10° ENE visible
25 Feb - 02:09:01 10° SSW 02:15:11 80° SE 02:21:13 10° NE visible
25 Feb - 03:56:25 10° W 04:02:05 38° NNW 04:07:38 10° NE visible
25 Feb - 05:45:06 10° WNW 05:50:00 25° N 05:54:49 10° NE visible
25 Feb - 07:32:41 10° NW 07:38:03 33° NNE 07:43:19 10° E daylight
25 Feb - 09:19:12 10° NW 09:25:09 85° NE 09:30:59 10° SE daylight
25 Feb - 11:06:14 10° WNW 11:10:51 25° WSW 11:15:25 10° SSW daylight
26 Feb - 00:33:21 10° SSE 00:38:26 28° ESE 00:43:26 10° NE visible
26 Feb - 02:18:07 10° SW 02:24:17 81° NW 02:30:19 10° NE visible
26 Feb - 04:06:00 10° W 04:11:26 33° NNW 04:16:47 10° NE visible
26 Feb - 05:54:36 10° NW 05:59:30 25° N 06:04:17 10° ENE visible
26 Feb - 07:41:51 10° NW 07:47:24 39° NNE 07:52:50 10° E daylight
26 Feb - 09:28:19 10° NW 09:34:13 75° SW 09:40:01 10° SSE daylight
26 Feb - 11:15:52 10° WNW 11:19:37 18° WSW 11:23:19 10° SW daylight
27 Feb - 00:41:43 10° S 00:47:18 37° ESE 00:52:48 10° NE visible
27 Feb - 02:27:20 10° SW 02:33:26 64° NW 02:39:24 10° NE visible
27 Feb - 04:15:36 10° WNW 04:20:51 29° NNW 04:25:59 10° NE visible
27 Feb - 06:04:01 10° NW 06:08:58 26° N 06:13:50 10° ENE visible
27 Feb - 07:50:59 10° NW 07:56:42 46° NE 08:02:18 10° ESE daylight
27 Feb - 09:37:29 10° NW 09:43:13 56° WSW 09:48:53 10° SSE daylight
27 Feb - 11:26:08 10° W 11:28:18 12° W 11:30:28 10° WSW daylight
27 Feb - 23:09:38 10° ESE 23:11:12 11° E 23:12:46 10° E night (unlit)
28 Feb - 00:50:19 10° SSW 00:56:14 50° ESE 01:02:01 10° NE visible
28 Feb - 02:36:41 10° WSW 02:42:40 52° NW 02:48:30 10° NE visible
28 Feb - 04:25:14 10° WNW 04:30:17 27° NNW 04:35:15 10° NE visible
28 Feb - 06:13:21 10° NW 06:18:25 28° NNE 06:23:23 10° ENE visible
28 Feb - 08:00:05 10° NW 08:05:57 57° NE 08:11:41 10° ESE daylight
28 Feb - 09:46:41 10° NW 09:52:10 41° WSW 09:57:34 10° S daylight
28 Feb - 23:16:19 10° SE 23:19:53 16° ESE 23:23:25 10° ENE visible
29 Feb - 00:59:08 10° SSW 01:05:13 67° SE 01:11:11 10° NE visible
29 Feb - 02:46:09 10° WSW 02:51:56 42° NNW 02:57:36 10° NE visible
29 Feb - 04:34:49 10° WNW 04:39:44 25° N 04:44:36 10° NE visible
29 Feb - 06:22:37 10° NW 06:27:51 30° NNE 06:32:59 10° E visible
29 Feb - 08:09:12 10° NW 08:15:07 72° NE 08:20:56 10° SE daylight
29 Feb - 09:56:00 10° NW 10:01:02 30° WSW 10:06:01 10° S daylight
29 Feb - 23:24:03 10° SSE 23:28:38 22° ESE 23:33:10 10° ENE visible
01 Mar - 01:08:07 10° SW 01:14:17 86° SE 01:20:18 10° NE visible
01 Mar - 02:55:40 10° W 03:01:15 36° NNW 03:06:43 10° NE visible
01 Mar - 04:44:21 10° NW 04:49:14 25° N 04:54:01 10° NE visible
01 Mar - 06:31:49 10° NW 06:37:13 35° NNE 06:42:32 10° E daylight
01 Mar - 08:18:18 10° NW 08:24:14 89° SW 08:30:04 10° SE daylight
01 Mar - 10:05:28 10° WNW 10:09:51 22° WSW 10:14:11 10° SSW daylight
01 Mar - 23:32:12 10° S 23:37:28 30° ESE 23:42:37 10° NE visible
02 Mar - 01:17:15 10° SW 01:23:23 75° NW 01:29:24 10° NE visible
02 Mar - 03:05:16 10° W 03:10:37 31° NNW 03:15:54 10° NE visible
02 Mar - 04:53:49 10° NW 04:58:42 25° N 05:03:31 10° ENE visible
02 Mar - 06:40:58 10° NW 06:46:33 41° NNE 06:52:03 10° E daylight
02 Mar - 08:27:26 10° NW 08:33:17 68° SW 08:39:03 10° SSE daylight
02 Mar - 10:15:14 10° WNW 10:18:35 16° WSW 10:21:55 10° SW daylight
02 Mar - 23:40:39 10° S 23:46:21 41° ESE 23:51:55 10° NE visible
03 Mar - 01:26:31 10° WSW 01:32:34 60° NW 01:38:29 10° NE visible
03 Mar - 03:14:53 10° WNW 03:20:02 28° NNW 03:25:07 10° NE visible
03 Mar - 05:03:12 10° NW 05:08:10 26° N 05:13:03 10° ENE visible
03 Mar - 06:50:05 10° NW 06:55:50 49° NE 07:01:29 10° ESE daylight
03 Mar - 08:36:36 10° NW 08:42:16 51° WSW 08:47:51 10° SSE daylight
03 Mar - 10:26:03 10° W 10:27:15 11° W 10:28:26 10° WSW daylight
03 Mar - 22:07:47 10° SE 22:10:10 12° ESE 22:12:32 10° ENE night (unlit)
03 Mar - 23:49:19 10° SSW 23:55:17 55° ESE 00:01:07 10° NE visible
04 Mar - 01:35:54 10° WSW 01:41:48 48° NW 01:47:34 10° NE visible
04 Mar - 03:24:29 10° WNW 03:29:29 26° N 03:34:25 10° NE visible
04 Mar - 05:12:31 10° NW 05:17:37 28° NNE 05:22:38 10° ENE visible
04 Mar - 06:59:12 10° NW 07:05:04 61° NE 07:10:49 10° ESE daylight
04 Mar - 08:45:51 10° NW 08:51:11 38° WSW 08:56:29 10° S daylight
04 Mar - 22:14:57 10° SE 22:18:52 18° ESE 22:22:45 10° ENE visible
04 Mar - 23:58:11 10° SSW 00:04:17 72° SE 00:10:16 10° NE visible
05 Mar - 01:45:22 10° W 01:51:05 40° NNW 01:56:41 10° NE visible
05 Mar - 03:34:03 10° WNW 03:38:57 25° N 03:43:46 10° NE visible
05 Mar - 05:21:45 10° NW 05:27:01 31° NNE 05:32:12 10° E visible
05 Mar - 07:08:17 10° NW 07:14:13 78° NE 07:20:02 10° SE daylight
05 Mar - 08:55:11 10° NW 09:00:02 28° WSW 09:04:51 10° SSW daylight
05 Mar - 22:22:49 10° SSE 22:27:38 25° ESE 22:32:22 10° ENE visible
